User: anonymous   Login
Location: ??
(35.5653°N, 139.6194°E)
Time: 23:27:28
(UTC+00:00)
Language:

Shenzhou-11 Module - Orbit

View from above orbital plane
View from above orbital plane
View from above satellite
View from above satellite

Ground track
Ground track

The orbit data is extracted from the following two-line orbital elements,

1 41868U 16061G   20023.21963453 +.00019462 +00000-0 +72171-4 0  9995
2 41868 042.7925 331.6718 0009825 179.2919 315.6119 15.87639472182750
Epoch (UTC): 23 January 2020 05:16:16
Eccentricity: 0.0009825
inclination: 42.7925°
perigee height: 302 km
apogee height: 315 km
right ascension of ascending node: 331.6718°
argument of perigee: 179.2919°
revolutions per day: 15.87639472
mean anomaly at epoch: 315.6119°
orbit number at epoch: 18275

The dashed part of the orbit path shows where the satellite is in the earth's shadow,  

DLR